EW5637 Weather Reports


Display with metric or nautical units.
time (UTC)temp
F
wind
direction
speed
MPH
gust
MPH
rain 1hr
in
rain 24hr
in
rain mn
in
humidity
%
barometer
mb
20260903044042 70 225 0.0 3.0 0.00 0.29 0.00 95 1017.3
20260903043543 70 225 1.0 3.0 0.00 0.29 0.00 95 1017.2
20260903043108 70 226 1.0 2.0 0.00 0.29 0.00 95 1017.3
20260903042542 70 0 0.0 2.0 0.00 0.29 0.00 95 1017.3
20260903042044 70 227 0.0 2.0 0.00 0.29 0.00 95 1017.5
20260903041558 70 227 0.0 2.0 0.00 0.29 0.00 95 1017.7
20260903041045 70 0 0.0 3.0 0.00 0.29 0.00 95 1017.9
20260903040544 70 0 0.0 4.0 0.00 0.29 0.00 95 1017.6
20260903040058 70 226 0.0 4.0 0.00 0.29 0.00 96 1017.6
20260903035542 70 0 1.0 2.0 0.00 0.29 0.29 96 1017.8
20260903035042 70 0 0.0 0.0 0.00 0.29 0.29 96 1017.6
20260903034611 70 0 0.0 0.0 0.00 0.29 0.29 95 1017.7
20260903034043 70 0 0.0 0.0 0.00 0.29 0.29 95 1017.9
20260903033542 70 0 0.0 0.0 0.00 0.29 0.29 96 1017.9
20260903033101 70 0 0.0 0.0 0.00 0.29 0.29 96 1017.8
20260903032542 70 0 0.0 0.0 0.00 0.29 0.29 95 1018.0
20260903032041 70 0 0.0 0.0 0.00 0.29 0.29 95 1018.1
20260903031611 70 0 0.0 0.0 0.00 0.29 0.29 95 1018.1
20260903031041 70 0 0.0 0.0 0.00 0.29 0.29 95 1017.9
20260903030543 70 0 0.0 0.0 0.00 0.29 0.29 95 1017.9
20260903030054 70 0 0.0 0.0 0.00 0.29 0.29 95 1017.9
20260903025543 69 0 0.0 2.0 0.00 0.29 0.29 95 1017.9
20260903025040 69 0 0.0 3.0 0.00 0.29 0.29 94 1018.0
20260903024551 69 0 0.0 3.0 0.00 0.29 0.29 94 1017.9
20260903024041 69 317 2.0 3.0 0.00 0.29 0.29 94 1017.8
20260903023540 69 206 0.0 1.0 0.00 0.29 0.29 94 1017.5
20260903023102 69 0 0.0 1.0 0.00 0.29 0.29 94 1017.5
20260903022540 69 0 0.0 0.0 0.00 0.29 0.29 94 1017.6
20260903022040 70 0 0.0 0.0 0.00 0.29 0.29 93 1017.6
20260903021557 70 0 0.0 2.0 0.00 0.29 0.29 94 1017.6
20260903021038 70 0 0.0 2.0 0.00 0.29 0.29 94 1017.6
20260903020540 70 206 0.0 2.0 0.00 0.29 0.29 94 1017.4
20260903020054 70 0 0.0 1.0 0.00 0.29 0.29 94 1017.3
20260903015537 70 0 0.0 0.0 0.00 0.29 0.29 94 1017.6
20260903015037 70 0 0.0 3.0 0.00 0.29 0.29 94 1017.7
20260903014559 70 0 0.0 3.0 0.00 0.29 0.29 93 1018.0
20260903014040 70 0 1.0 3.0 0.00 0.29 0.29 93 1018.0
20260903013537 70 206 1.0 3.0 0.00 0.29 0.29 93 1017.9
20260903013100 70 205 0.0 2.0 0.00 0.29 0.29 93 1018.0
20260903012537 70 0 0.0 2.0 0.00 0.29 0.29 92 1017.9
20260903012040 70 204 0.0 2.0 0.00 0.29 0.29 92 1017.8
20260903011602 71 0 0.0 0.0 0.00 0.29 0.29 92 1017.6
20260903011038 71 0 0.0 3.0 0.00 0.29 0.29 93 1017.7
20260903010537 71 0 0.0 3.0 0.00 0.29 0.29 93 1017.6
20260903010051 71 205 2.0 3.0 0.00 0.29 0.29 92 1017.6
20260903005537 71 188 0.0 0.0 0.00 0.29 0.29 91 1017.2
20260903005037 72 0 0.0 0.0 0.00 0.29 0.29 91 1017.0
20260903004603 72 0 0.0 1.0 0.00 0.29 0.29 91 1017.1
20260903004040 72 0 0.0 1.0 0.00 0.29 0.29 91 1017.2
20260903003540 72 0 0.0 1.0 0.00 0.29 0.29 91 1017.3
20260903003056 72 0 0.0 3.0 0.00 0.29 0.29 91 1017.4
20260903002541 73 0 0.0 3.0 0.00 0.29 0.29 91 1017.5
20260903002041 73 186 1.0 3.0 0.00 0.29 0.29 90 1017.5
20260903001555 73 0 0.0 2.0 0.00 0.29 0.29 90 1017.6
20260903001050 73 0 0.0 2.0 0.00 0.29 0.29 90 1017.6
20260903000541 74 0 0.0 2.0 0.00 0.29 0.29 90 1017.7
20260903000057 74 187 0.0 1.0 0.00 0.29 0.29 90 1017.7
20260902235540 74 0 0.0 1.0 0.00 0.29 0.29 90 1017.4
20260902235131 74 0 0.0 1.0 0.00 0.29 0.29 90 1017.4
20260902234550 74 0 0.0 0.0 0.00 0.29 0.29 89 1017.4
20260902234042 74 0 0.0 0.0 0.00 0.29 0.29 89 1017.7
20260902233540 75 0 0.0 1.0 0.00 0.29 0.29 88 1017.7
20260902233053 75 0 0.0 1.0 0.00 0.29 0.29 88 1017.7
20260902232541 75 0 0.0 1.0 0.00 0.29 0.29 87 1017.7
20260902232040 75 0 0.0 2.0 0.00 0.29 0.29 87 1017.8
20260902231555 76 0 0.0 3.0 0.00 0.29 0.29 87 1017.9
20260902231042 76 0 0.0 5.0 0.00 0.29 0.29 86 1017.8
20260902230542 76 182 1.0 5.0 0.00 0.29 0.29 86 1017.4
20260902230107 76 184 0.0 3.0 0.00 0.29 0.29 85 1017.7
20260902225542 77 0 0.0 4.0 0.00 0.29 0.29 85 1017.6
20260902225044 77 0 1.0 4.0 0.00 0.29 0.29 84 1017.7
20260902224554 77 0 0.0 5.0 0.00 0.29 0.29 83 1017.5
20260902224043 77 184 1.0 5.0 0.00 0.29 0.29 83 1017.3
20260902223542 77 172 1.0 5.0 0.00 0.29 0.29 83 1017.3
20260902223059 78 0 0.0 5.0 0.00 0.29 0.29 83 1017.5
20260902222544 78 0 0.0 5.0 0.00 0.29 0.29 83 1017.4
20260902222042 78 155 0.0 7.0 0.00 0.29 0.29 82 1017.6
20260902221556 79 149 2.0 7.0 0.00 0.29 0.29 81 1017.4
20260902221044 79 153 3.0 7.0 0.00 0.29 0.29 80 1017.4
20260902220542 80 146 3.0 8.0 0.00 0.29 0.29 79 1017.6
20260902220100 80 109 1.0 8.0 0.00 0.29 0.29 79 1017.6
20260902215542 80 140 3.0 8.0 0.00 0.29 0.29 78 1017.7
20260902215042 80 140 2.0 8.0 0.00 0.29 0.29 78 1017.7
20260902214606 81 149 3.0 7.0 0.00 0.29 0.29 78 1017.8
20260902214042 81 167 2.0 5.0 0.00 0.29 0.29 78 1017.8
20260902213544 81 0 0.0 3.0 0.00 0.29 0.29 77 1017.7
20260902213058 81 178 1.0 4.0 0.00 0.29 0.29 77 1017.8
20260902212542 81 0 0.0 4.0 0.00 0.29 0.29 77 1017.6
20260902212042 81 177 0.0 5.0 0.00 0.29 0.29 77 1017.6
20260902211610 80 0 1.0 5.0 0.00 0.29 0.29 77 1017.6
20260902211042 80 192 1.0 5.0 0.00 0.29 0.29 77 1017.8
20260902210540 80 153 1.0 5.0 0.00 0.29 0.29 79 1017.8
20260902210119 80 192 1.0 5.0 0.00 0.29 0.29 78 1017.9
20260902205542 79 200 2.0 5.0 0.00 0.29 0.29 77 1018.0
20260902205043 79 145 1.0 3.0 0.00 0.29 0.29 78 1018.0
20260902204551 79 145 0.0 3.0 0.00 0.29 0.29 79 1018.1
20260902204042 79 0 0.0 4.0 0.00 0.29 0.29 80 1018.2
20260902203542 79 0 1.0 6.0 0.00 0.29 0.29 79 1018.2
20260902203057 79 123 2.0 6.0 0.00 0.29 0.29 80 1018.4
20260902202542 79 155 0.0 7.0 0.00 0.29 0.29 81 1018.5
20260902202042 79 115 1.0 7.0 0.00 0.29 0.29 81 1018.4
20260902201608 79 126 1.0 6.0 0.00 0.29 0.29 81 1018.5
20260902201042 79 130 2.0 6.0 0.00 0.29 0.29 82 1018.6
20260902200546 78 145 0.0 3.0 0.00 0.29 0.29 81 1018.4
20260902200053 78 259 2.0 3.0 0.00 0.29 0.29 80 1018.2
20260902195541 78 264 1.0 3.0 0.00 0.29 0.29 81 1018.1
20260902195042 77 0 0.0 3.0 0.00 0.29 0.29 82 1017.9
20260902194601 77 9 1.0 3.0 0.00 0.29 0.29 83 1017.8
20260902194045 77 0 0.0 3.0 0.00 0.29 0.29 83 1017.8
20260902193542 77 0 0.0 5.0 0.00 0.29 0.29 83 1017.9
20260902193058 76 238 1.0 6.0 0.00 0.29 0.29 84 1017.9
20260902192541 76 206 2.0 6.0 0.00 0.29 0.29 84 1018.0
20260902192042 76 237 2.0 7.0 0.00 0.29 0.29 86 1018.2
20260902191603 76 0 3.0 7.0 0.00 0.29 0.29 86 1018.3
20260902191042 75 0 3.0 6.0 0.00 0.29 0.29 88 1018.4
20260902190543 75 0 2.0 7.0 0.00 0.29 0.29 89 1018.5
20260902190106 74 135 2.0 8.0 0.00 0.29 0.29 89 1018.5
20260902185542 74 198 3.0 8.0 0.00 0.29 0.29 90 1018.6
20260902185042 73 185 2.0 7.0 0.00 0.29 0.29 92 1018.7
20260902184601 73 190 3.0 7.0 0.00 0.29 0.29 92 1018.9
20260902184047 73 244 2.0 6.0 0.00 0.29 0.29 94 1018.8
20260902183548 72 236 3.0 5.0 0.01 0.29 0.29 94 1018.9
20260902183101 72 197 2.0 5.0 0.01 0.29 0.29 94 1018.9
20260902182544 71 177 1.0 3.0 0.01 0.29 0.29 94 1019.1
20260902182045 71 135 1.0 3.0 0.02 0.29 0.29 93 1019.0
20260902181605 71 136 1.0 7.0 0.02 0.29 0.29 94 1018.9
20260902181043 71 136 2.0 8.0 0.02 0.29 0.29 94 1019.0
20260902180541 70 113 4.0 8.0 0.03 0.29 0.29 93 1019.0
20260902180116 71 131 3.0 7.0 0.03 0.29 0.29 93 1019.2
20260902175543 71 143 2.0 6.0 0.03 0.29 0.29 94 1019.2
20260902175042 71 125 1.0 6.0 0.04 0.29 0.29 93 1019.1
20260902174603 70 120 2.0 7.0 0.05 0.29 0.29 93 1019.1
20260902174045 70 98 3.0 7.0 0.05 0.29 0.29 93 1019.3
20260902173542 71 86 2.0 5.0 0.06 0.28 0.28 93 1019.3
20260902173101 70 0 2.0 3.0 0.06 0.28 0.28 93 1019.4
20260902172542 70 0 0.0 9.0 0.08 0.28 0.28 93 1019.8
20260902172043 70 0 1.0 9.0 0.07 0.27 0.27 93 1019.7
20260902171601 70 111 5.0 8.0 0.09 0.27 0.27 93 1019.8
20260902171042 70 129 3.0 4.0 0.11 0.26 0.26 93 1019.9
20260902170541 70 101 1.0 4.0 0.21 0.26 0.26 92 1019.7
20260902170114 70 100 3.0 4.0 0.26 0.26 0.26 92 1019.7
20260902165543 71 290 0.0 4.0 0.26 0.26 0.26 92 1019.9
20260902165043 71 0 1.0 4.0 0.25 0.25 0.25 91 1019.9
20260902164556 71 296 2.0 6.0 0.24 0.24 0.24 91 1020.1
20260902164042 71 286 1.0 8.0 0.24 0.24 0.24 90 1020.4
20260902163542 71 237 2.0 9.0 0.22 0.22 0.22 90 1020.5
20260902163058 71 273 5.0 11.0 0.22 0.22 0.22 89 1020.9
20260902162542 71 300 6.0 15.0 0.20 0.20 0.20 89 1021.1
20260902162043 72 313 5.0 15.0 0.20 0.20 0.20 89 1021.3
20260902161602 72 332 7.0 19.0 0.18 0.18 0.18 88 1021.5
20260902161042 74 324 10.0 20.0 0.14 0.14 0.14 86 1021.7
20260902160542 76 11 11.0 22.0 0.04 0.04 0.04 83 1021.5
20260902155541 78 340 9.0 13.0 0.00 0.00 0.00 84 1021.0
20260902155040 79 340 1.0 3.0 0.00 0.00 0.00 84 1020.5
20260902154603 79 0 0.0 2.0 0.00 0.00 0.00 83 1020.2
20260902154042 79 153 0.0 1.0 0.00 0.00 0.00 82 1020.0
20260902153543 78 0 0.0 3.0 0.00 0.00 0.00 82 1019.7
20260902153055 79 0 1.0 3.0 0.00 0.00 0.00 83 1019.7
20260902152541 79 153 0.0 2.0 0.00 0.00 0.00 82 1019.6
20260902152041 79 153 1.0 6.0 0.00 0.00 0.00 83 1019.2
20260902151607 79 0 0.0 7.0 0.00 0.00 0.00 82 1019.3
20260902151042 79 89 3.0 7.0 0.00 0.00 0.00 81 1019.1
20260902150541 79 0 1.0 7.0 0.00 0.00 0.00 82 1018.9
20260902145542 78 100 3.0 6.0 0.00 0.00 0.00 82 1019.0
20260902145042 78 160 2.0 7.0 0.00 0.00 0.00 82 1019.2
20260902144610 78 103 3.0 7.0 0.00 0.00 0.00 82 1019.1
20260902144045 78 121 3.0 6.0 0.00 0.00 0.00 83 1019.1
20260902143542 78 101 3.0 6.0 0.00 0.00 0.00 83 1019.1
20260902143056 78 92 2.0 7.0 0.00 0.00 0.00 83 1019.1
20260902142539 78 80 2.0 7.0 0.00 0.00 0.00 83 1019.1
20260902142043 78 88 2.0 7.0 0.00 0.00 0.00 83 1019.1
20260902141602 78 0 3.0 7.0 0.00 0.00 0.00 83 1019.1
20260902141041 77 98 2.0 7.0 0.00 0.00 0.00 83 1019.1
20260902140542 77 134 3.0 6.0 0.00 0.00 0.00 83 1019.0
20260902135544 77 115 4.0 8.0 0.00 0.00 0.00 82 1018.9
20260902135042 77 106 4.0 8.0 0.00 0.00 0.00 82 1018.8
20260902134559 78 135 2.0 7.0 0.00 0.00 0.00 82 1018.8
20260902134041 78 141 2.0 4.0 0.00 0.00 0.00 82 1018.8
20260902133542 78 133 2.0 4.0 0.00 0.00 0.00 83 1018.8
20260902133054 78 129 0.0 3.0 0.00 0.00 0.00 82 1018.9
20260902132542 77 129 1.0 3.0 0.00 0.00 0.00 83 1019.0
20260902132039 77 0 0.0 2.0 0.00 0.00 0.00 83 1019.1
20260902131604 77 0 1.0 2.0 0.00 0.00 0.00 83 1019.1
20260902131043 77 0 1.0 3.0 0.00 0.00 0.00 83 1019.1
20260902130559 77 0 0.0 4.0 0.00 0.00 0.00 84 1019.1
20260902130057 76 0 2.0 4.0 0.00 0.00 0.00 83 1018.9
20260902125542 76 0 2.0 4.0 0.00 0.00 0.00 83 1018.8
20260902125042 76 0 0.0 0.0 0.00 0.00 0.00 85 1018.8
20260902124558 76 0 0.0 0.0 0.00 0.00 0.00 86 1018.8
20260902124042 75 0 0.0 0.0 0.00 0.00 0.00 86 1018.8
20260902123543 74 0 0.0 0.0 0.00 0.00 0.00 88 1018.7
20260902123103 74 0 0.0 0.0 0.00 0.00 0.00 89 1018.5
20260902122543 74 0 0.0 0.0 0.00 0.00 0.00 90 1018.6
20260902122041 73 0 0.0 0.0 0.00 0.00 0.00 91 1018.5
20260902121554 72 0 0.0 0.0 0.00 0.00 0.00 93 1018.6
20260902121043 72 0 0.0 0.0 0.00 0.00 0.00 94 1018.5
20260902120542 71 0 0.0 1.0 0.00 0.00 0.00 95 1018.6
20260902115542 70 0 1.0 2.0 0.00 0.00 0.00 95 1018.5
20260902115042 70 0 0.0 0.0 0.00 0.00 0.00 95 1018.6
20260902114556 69 0 0.0 0.0 0.00 0.00 0.00 95 1018.5
20260902114041 69 0 0.0 2.0 0.00 0.00 0.00 95 1018.5
20260902113542 68 0 0.0 3.0 0.00 0.00 0.00 95 1018.5
20260902113056 68 0 1.0 3.0 0.00 0.00 0.00 95 1018.5
20260902112542 67 316 1.0 3.0 0.00 0.00 0.00 95 1018.4
20260902112042 67 0 0.0 0.0 0.00 0.00 0.00 94 1018.6
20260902111551 67 0 0.0 0.0 0.00 0.00 0.00 94 1018.5
20260902111042 67 0 0.0 0.0 0.00 0.00 0.00 93 1018.5
20260902110542 67 0 0.0 3.0 0.00 0.00 0.00 93 1018.5
20260902110055 68 0 0.0 3.0 0.00 0.00 0.00 94 1018.5
20260902105544 67 324 1.0 3.0 0.00 0.00 0.00 94 1018.5
20260902105042 67 0 0.0 0.0 0.00 0.00 0.00 94 1018.5
20260902104557 67 0 0.0 0.0 0.00 0.00 0.00 93 1018.5
20260902104041 67 0 0.0 1.0 0.00 0.00 0.00 93 1018.6
20260902103542 67 0 0.0 1.0 0.00 0.00 0.00 93 1018.6
20260902103054 67 0 0.0 1.0 0.00 0.00 0.00 93 1018.5
20260902102543 67 0 0.0 2.0 0.00 0.00 0.00 93 1018.6
20260902102043 67 0 0.0 2.0 0.00 0.00 0.00 93 1018.7
20260902101553 68 324 1.0 2.0 0.00 0.00 0.00 93 1018.7
20260902101040 68 0 0.0 2.0 0.00 0.00 0.00 93 1018.8
20260902100542 68 0 0.0 3.0 0.00 0.00 0.00 93 1018.7
20260902100054 68 0 1.0 3.0 0.00 0.00 0.00 93 1018.7
20260902095541 68 326 1.0 2.0 0.00 0.00 0.00 93 1018.6
20260902095043 68 0 0.0 0.0 0.00 0.00 0.00 93 1018.6
20260902094615 68 0 0.0 0.0 0.00 0.00 0.00 93 1018.6
20260902094042 68 0 0.0 0.0 0.00 0.00 0.00 93 1018.6
20260902093541 68 0 0.0 0.0 0.00 0.00 0.00 93 1018.7
20260902093053 68 0 0.0 0.0 0.00 0.00 0.00 93 1018.7
20260902092542 68 0 0.0 2.0 0.00 0.00 0.00 93 1018.7
20260902092045 68 0 0.0 3.0 0.00 0.00 0.00 93 1018.7
20260902091603 68 326 1.0 3.0 0.00 0.00 0.00 93 1018.6
20260902091042 68 326 2.0 3.0 0.00 0.00 0.00 93 1018.6
20260902090542 68 325 0.0 4.0 0.00 0.00 0.00 93 1018.6
20260902090055 68 0 0.0 4.0 0.00 0.00 0.00 93 1018.6
20260902085543 68 325 1.0 4.0 0.00 0.00 0.00 93 1018.7
20260902085041 68 325 2.0 4.0 0.00 0.00 0.00 92 1018.6
20260902084552 68 325 2.0 4.0 0.00 0.00 0.00 92 1018.6
20260902084043 68 324 1.0 4.0 0.00 0.00 0.00 92 1018.5
20260902083542 68 323 1.0 3.0 0.00 0.00 0.00 92 1018.5
20260902083103 68 188 0.0 2.0 0.00 0.00 0.00 91 1018.4
20260902082544 69 0 0.0 2.0 0.00 0.00 0.00 91 1018.3
20260902082042 69 186 1.0 2.0 0.00 0.00 0.00 91 1018.3
20260902081558 69 0 0.0 2.0 0.00 0.00 0.00 91 1018.3
20260902081040 69 0 0.0 2.0 0.00 0.00 0.00 91 1018.3
20260902080542 69 0 0.0 2.0 0.00 0.00 0.00 91 1018.3
20260902080111 70 0 0.0 3.0 0.00 0.00 0.00 91 1018.4
20260902075542 70 186 2.0 4.0 0.00 0.00 0.00 90 1018.3
20260902075042 70 185 2.0 4.0 0.00 0.00 0.00 90 1018.3
20260902074552 70 183 2.0 7.0 0.00 0.00 0.00 90 1018.4
20260902074041 71 154 3.0 9.0 0.00 0.00 0.00 89 1018.2
20260902073542 71 143 3.0 9.0 0.00 0.00 0.00 89 1018.1
20260902073100 71 70 4.0 9.0 0.00 0.00 0.00 88 1017.8
20260902072541 72 71 3.0 11.0 0.00 0.00 0.00 88 1017.8
20260902072044 72 84 4.0 11.0 0.00 0.00 0.00 88 1017.7
20260902071553 71 87 6.0 11.0 0.00 0.00 0.00 89 1017.6
20260902071042 71 98 7.0 9.0 0.00 0.00 0.00 90 1017.4
20260902070541 70 108 3.0 6.0 0.00 0.00 0.00 91 1017.3
20260902070100 70 75 3.0 4.0 0.00 0.00 0.00 91 1017.1
20260902065542 70 60 1.0 3.0 0.00 0.00 0.00 91 1016.9
20260902065041 69 58 0.0 4.0 0.00 0.00 0.00 92 1017.0
20260902064608 69 0 0.0 4.0 0.00 0.00 0.00 91 1017.0
20260902064042 69 58 2.0 4.0 0.00 0.00 0.00 92 1017.1
20260902063542 69 57 1.0 4.0 0.00 0.00 0.00 91 1017.1
20260902063105 69 56 1.0 3.0 0.00 0.00 0.00 91 1017.1
20260902062542 69 289 0.0 2.0 0.00 0.00 0.00 90 1017.2
20260902062042 69 0 0.0 1.0 0.00 0.00 0.00 90 1017.2
20260902061559 69 0 0.0 1.0 0.00 0.00 0.00 90 1017.2
20260902061042 70 0 0.0 2.0 0.00 0.00 0.00 90 1017.3
20260902060541 70 0 0.0 2.0 0.00 0.00 0.00 90 1017.3
20260902060109 70 288 0.0 2.0 0.00 0.00 0.00 90 1017.3
20260902055541 70 0 0.0 2.0 0.00 0.00 0.00 89 1017.3
20260902055041 70 0 0.0 2.0 0.00 0.00 0.00 89 1017.6
20260902054554 70 289 0.0 0.0 0.00 0.00 0.00 88 1017.6
20260902054042 71 0 0.0 0.0 0.00 0.00 0.00 88 1017.5
20260902053542 71 0 0.0 2.0 0.00 0.00 0.00 89 1017.5
20260902053120 71 0 0.0 2.0 0.00 0.00 0.00 88 1017.6
20260902052541 71 0 1.0 6.0 0.00 0.00 0.00 87 1017.7
20260902052041 72 289 1.0 6.0 0.00 0.00 0.00 87 1017.8
20260902051555 72 266 1.0 6.0 0.00 0.00 0.00 87 1017.8
20260902051043 72 266 2.0 4.0 0.00 0.00 0.00 87 1017.8
20260902050542 72 298 0.0 3.0 0.00 0.00 0.00 87 1017.8
20260902050058 72 0 2.0 3.0 0.00 0.00 0.00 87 1017.9
20260902045541 72 314 1.0 3.0 0.00 0.00 0.00 87 1018.0
20260902045041 72 314 0.0 3.0 0.00 0.00 0.00 87 1017.9
20260902044555 73 0 0.0 0.0 0.00 0.00 0.00 86 1017.9